When you browse on this site, cookies collect data to enhance your experience and personalize the content and advertising you see.
Visit our Privacy Policy to learn more. By continuing to use the site, you agree to this use of cookies and data.
  • In Czech Republic
  • List of Countries
  • For 7 days
  • Water Temperature
  • Weather Map
  • Weather Widgets
  • user-avatar
    Login

    Hourly Weather Lamu

    Today, 20 August, Tuesday

    Time Temperature Precipitation Wind Pressure Humidity
    00:00 +26°C° 0 mm 7 mps 760 mmHg 79%
    01:00 +24°C° 0 mm 7 mps 760 mmHg 79%
    02:00 +24°C° 0 mm 7 mps 759 mmHg 79%
    03:00 +24°C° 0 mm 7 mps 759 mmHg 79%
    04:00 +24°C° 0 mm 7 mps 759 mmHg 81%
    05:00 +24°C° 0 mm 7 mps 760 mmHg 82%
    06:00 +24°C° 0 mm 6 mps 760 mmHg 83%
    07:00 +26°C° 0 mm 6 mps 761 mmHg 77%
    08:00 +27°C° 0 mm 6 mps 761 mmHg 71%
    09:00 +29°C° 0 mm 6 mps 762 mmHg 66%
    10:00 +30°C° 0 mm 6 mps 762 mmHg 61%
    11:00 +32°C° 0 mm 6 mps 761 mmHg 57%
    12:00 +33°C° 0 mm 6 mps 761 mmHg 52%
    13:00 +32°C° 0 mm 7 mps 760 mmHg 53%
    14:00 +32°C° 0 mm 7 mps 759 mmHg 54%
    15:00 +32°C° 0 mm 7 mps 759 mmHg 55%
    16:00 +30°C° 0 mm 7 mps 759 mmHg 61%
    17:00 +29°C° 0 mm 7 mps 759 mmHg 66%
    18:00 +27°C° 0 mm 7 mps 759 mmHg 72%
    19:00 +27°C° 0 mm 7 mps 759 mmHg 75%
    20:00 +26°C° 0 mm 7 mps 760 mmHg 78%
    21:00 +26°C° 0 mm 7 mps 760 mmHg 81%
    22:00 +26°C° 0 mm 7 mps 760 mmHg 82%
    23:00 +26°C° 0 mm 8 mps 760 mmHg 82%

    Tomorrow, 21 August, Wednesday

    Time Temperature Precipitation Wind Pressure Humidity
    00:00 +26°C° 0 mm 8 mps 760 mmHg 82%
    01:00 +26°C° 0 mm 8 mps 760 mmHg 81%
    02:00 +26°C° 0 mm 8 mps 760 mmHg 80%
    03:00 +26°C° 0 mm 8 mps 759 mmHg 79%
    04:00 +26°C° 0 mm 8 mps 760 mmHg 79%
    05:00 +26°C° 0 mm 7 mps 760 mmHg 79%
    06:00 +26°C° 0 mm 7 mps 760 mmHg 79%
    07:00 +27°C° 0 mm 7 mps 761 mmHg 73%
    08:00 +28°C° 0 mm 7 mps 761 mmHg 68%
    09:00 +30°C° 0 mm 7 mps 762 mmHg 62%
    10:00 +32°C° 0 mm 7 mps 762 mmHg 59%
    11:00 +32°C° 0 mm 7 mps 761 mmHg 55%
    12:00 +33°C° 0 mm 8 mps 761 mmHg 52%
    13:00 +33°C° 0 mm 8 mps 760 mmHg 53%
    14:00 +32°C° 0 mm 8 mps 760 mmHg 54%
    15:00 +32°C° 0 mm 8 mps 759 mmHg 56%
    16:00 +31°C° 0 mm 8 mps 759 mmHg 62%
    17:00 +29°C° 0 mm 8 mps 759 mmHg 68%
    18:00 +27°C° 0 mm 8 mps 759 mmHg 74%
    19:00 +27°C° 0 mm 8 mps 760 mmHg 75%
    20:00 +27°C° 0 mm 8 mps 760 mmHg 76%
    21:00 +27°C° 0 mm 8 mps 761 mmHg 77%
    22:00 +26°C° 0 mm 8 mps 760 mmHg 79%
    23:00 +26°C° 0 mm 8 mps 760 mmHg 80%

    Day after tomorrow, 22 August, Thursday

    Time Temperature Precipitation Wind Pressure Humidity
    00:00 +26°C° 0 mm 7 mps 760 mmHg 82%
    01:00 +26°C° 0 mm 7 mps 760 mmHg 80%
    02:00 +27°C° 0 mm 7 mps 760 mmHg 78%
    03:00 +27°C° 0 mm 7 mps 759 mmHg 76%
    04:00 +27°C° 0 mm 7 mps 759 mmHg 78%
    05:00 +27°C° 0 mm 7 mps 760 mmHg 79%
    06:00 +26°C° 0 mm 7 mps 760 mmHg 81%
    07:00 +27°C° 0.1 mm 7 mps 760 mmHg 75%
    08:00 +29°C° 0.1 mm 7 mps 761 mmHg 70%
    09:00 +31°C° 0.1 mm 8 mps 761 mmHg 64%
    10:00 +31°C° 0.1 mm 8 mps 761 mmHg 62%
    11:00 +32°C° 0.1 mm 8 mps 761 mmHg 60%
    12:00 +32°C° 0.1 mm 8 mps 760 mmHg 58%
    13:00 +32°C° 0.1 mm 8 mps 760 mmHg 60%
    14:00 +31°C° 0.1 mm 8 mps 759 mmHg 61%
    15:00 +31°C° 0.1 mm 8 mps 758 mmHg 63%
    16:00 +29°C° 0.1 mm 8 mps 758 mmHg 66%
    17:00 +28°C° 0.1 mm 8 mps 758 mmHg 70%
    18:00 +28°C° 0.1 mm 8 mps 758 mmHg 73%
    19:00 +27°C° 0 mm 8 mps 759 mmHg 76%
    20:00 +27°C° 0 mm 8 mps 759 mmHg 78%
    21:00 +26°C° 0 mm 8 mps 760 mmHg 81%
    22:00 +26°C° 0.1 mm 8 mps 760 mmHg 82%
    23:00 +26°C° 0.1 mm 8 mps 760 mmHg 84%

    23 August, Friday

    Time Temperature Precipitation Wind Pressure Humidity
    00:00 +26°C° 0.1 mm 8 mps 760 mmHg 85%
    01:00 +26°C° 0.1 mm 7 mps 760 mmHg 86%
    02:00 +26°C° 0.1 mm 7 mps 759 mmHg 86%
    03:00 +26°C° 0.1 mm 7 mps 759 mmHg 86%
    04:00 +26°C° 1.4 mm 7 mps 759 mmHg 87%
    05:00 +24°C° 1.4 mm 7 mps 759 mmHg 88%
    06:00 +24°C° 1.4 mm 7 mps 760 mmHg 89%
    07:00 +27°C° 1.4 mm 7 mps 760 mmHg 82%
    08:00 +28°C° 1.4 mm 7 mps 761 mmHg 75%
    09:00 +29°C° 1.4 mm 7 mps 761 mmHg 68%
    10:00 +30°C° 1.1 mm 7 mps 761 mmHg 68%
    11:00 +30°C° 1.1 mm 7 mps 761 mmHg 67%
    12:00 +32°C° 1.1 mm 8 mps 760 mmHg 66%
    13:00 +32°C° 0.4 mm 8 mps 760 mmHg 65%
    14:00 +32°C° 0.4 mm 7 mps 759 mmHg 63%
    15:00 +32°C° 0.4 mm 7 mps 759 mmHg 62%
    16:00 +30°C° 0 mm 7 mps 759 mmHg 67%
    17:00 +29°C° 0 mm 7 mps 759 mmHg 71%
    18:00 +28°C° 0 mm 7 mps 759 mmHg 75%
    19:00 +27°C° 0.1 mm 7 mps 759 mmHg 79%
    20:00 +27°C° 0.1 mm 7 mps 760 mmHg 82%
    21:00 +26°C° 0.1 mm 6 mps 760 mmHg 86%
    22:00 +26°C° 0.2 mm 7 mps 760 mmHg 87%
    23:00 +26°C° 0.2 mm 7 mps 760 mmHg 88%

    24 August, Saturday

    Time Temperature Precipitation Wind Pressure Humidity
    00:00 +26°C° 0.2 mm 7 mps 760 mmHg 90%
    01:00 +24°C° 0.4 mm 7 mps 760 mmHg 90%
    02:00 +24°C° 0.4 mm 7 mps 759 mmHg 91%
    03:00 +24°C° 0.4 mm 7 mps 759 mmHg 91%
    04:00 +24°C° 0.8 mm 6 mps 759 mmHg 91%
    05:00 +24°C° 0.8 mm 6 mps 760 mmHg 92%
    06:00 +24°C° 0.8 mm 6 mps 760 mmHg 92%
    07:00 +26°C° 1.4 mm 6 mps 761 mmHg 89%
    08:00 +27°C° 1.4 mm 6 mps 761 mmHg 85%
    09:00 +28°C° 1.4 mm 6 mps 762 mmHg 82%
    10:00 +28°C° 1.8 mm 6 mps 761 mmHg 81%
    11:00 +29°C° 1.8 mm 7 mps 761 mmHg 80%
    12:00 +29°C° 1.8 mm 7 mps 761 mmHg 78%
    13:00 +29°C° 1.7 mm 7 mps 760 mmHg 79%
    14:00 +29°C° 1.7 mm 7 mps 759 mmHg 80%
    15:00 +28°C° 1.7 mm 7 mps 759 mmHg 81%
    16:00 +27°C° 1.3 mm 7 mps 759 mmHg 84%
    17:00 +27°C° 1.3 mm 6 mps 759 mmHg 87%
    18:00 +26°C° 1.3 mm 6 mps 760 mmHg 90%
    19:00 +26°C° 0.8 mm 6 mps 760 mmHg 91%
    20:00 +24°C° 0.8 mm 6 mps 761 mmHg 92%
    21:00 +24°C° 0.8 mm 6 mps 761 mmHg 93%
    22:00 +24°C° 0.9 mm 7 mps 761 mmHg 93%
    23:00 +24°C° 0.9 mm 7 mps 761 mmHg 93%

    25 August, Sunday

    Time Temperature Precipitation Wind Pressure Humidity
    00:00 +24°C° 0.9 mm 7 mps 761 mmHg 93%
    01:00 +24°C° 0.5 mm 7 mps 760 mmHg 92%
    02:00 +24°C° 0.5 mm 7 mps 760 mmHg 92%
    03:00 +24°C° 0.5 mm 7 mps 760 mmHg 91%
    04:00 +24°C° 0.1 mm 7 mps 760 mmHg 91%
    05:00 +23°C° 0.1 mm 6 mps 760 mmHg 91%
    06:00 +23°C° 0.1 mm 6 mps 761 mmHg 91%
    07:00 +26°C° 0 mm 6 mps 761 mmHg 85%
    08:00 +27°C° 0 mm 6 mps 762 mmHg 80%
    09:00 +28°C° 0 mm 6 mps 762 mmHg 74%
    10:00 +29°C° 0 mm 6 mps 762 mmHg 69%
    11:00 +30°C° 0 mm 6 mps 762 mmHg 64%
    12:00 +32°C° 0 mm 6 mps 761 mmHg 59%
    13:00 +32°C° 0 mm 6 mps 761 mmHg 58%
    14:00 +32°C° 0 mm 6 mps 760 mmHg 58%
    15:00 +32°C° 0 mm 6 mps 759 mmHg 58%
    16:00 +29°C° 0 mm 6 mps 759 mmHg 64%
    17:00 +28°C° 0 mm 6 mps 759 mmHg 70%
    18:00 +27°C° 0 mm 6 mps 759 mmHg 76%
    19:00 +26°C° 0 mm 6 mps 760 mmHg 78%
    20:00 +26°C° 0 mm 6 mps 760 mmHg 81%
    21:00 +26°C° 0 mm 6 mps 760 mmHg 84%
    22:00 +24°C° 0 mm 6 mps 760 mmHg 85%
    23:00 +24°C° 0 mm 7 mps 760 mmHg 86%
    Show more